TimeMDT,TemperatureF,Dew PointF,Humidity,Sea Level PressureIn,VisibilityMPH,Wind Direction,Wind SpeedMPH,Gust SpeedMPH,PrecipitationIn,Events,Conditions,WindDirDegrees,DateUTC
12:53 AM,52.0,37.9,59,29.39,10.0,North,6.9,-,0.00,,Overcast,10,2013-10-28 06:53:00
1:53 AM,51.1,39.0,63,29.42,10.0,South,13.8,-,0.00,Rain,Light Rain,190,2013-10-28 07:53:00
2:53 AM,45.0,37.9,76,29.40,10.0,SE,3.5,-,0.01,,Clear,130,2013-10-28 08:53:00
3:53 AM,45.0,36.0,71,29.39,10.0,WSW,6.9,-,N/A,,Mostly Cloudy,240,2013-10-28 09:53:00
4:53 AM,41.0,32.0,70,29.38,10.0,WSW,8.1,-,N/A,,Partly Cloudy,240,2013-10-28 10:53:00
5:53 AM,39.0,33.1,79,29.39,10.0,SSW,6.9,-,N/A,,Clear,200,2013-10-28 11:53:00
6:53 AM,37.9,33.1,83,29.38,10.0,SW,3.5,-,N/A,,Scattered Clouds,220,2013-10-28 12:53:00
7:53 AM,39.9,36.0,86,29.39,10.0,West,3.5,-,N/A,,Overcast,270,2013-10-28 13:53:00
8:53 AM,42.1,35.1,76,29.40,10.0,SSE,8.1,-,N/A,,Overcast,160,2013-10-28 14:53:00
9:53 AM,48.0,36.0,63,29.38,10.0,East,10.4,-,0.00,,Scattered Clouds,80,2013-10-28 15:53:00
10:53 AM,51.1,36.0,56,29.37,10.0,ENE,17.3,26.5,N/A,,Overcast,70,2013-10-28 16:53:00
11:53 AM,53.1,36.0,52,29.37,10.0,ENE,17.3,24.2,N/A,,Overcast,70,2013-10-28 17:53:00
12:53 PM,55.0,34.0,45,29.37,10.0,ESE,8.1,-,N/A,,Mostly Cloudy,110,2013-10-28 18:53:00
1:53 PM,55.0,39.0,55,29.36,10.0,ENE,23.0,28.8,0.00,,Mostly Cloudy,60,2013-10-28 19:53:00
2:53 PM,52.0,39.9,63,29.39,10.0,ENE,20.7,28.8,0.00,,Overcast,60,2013-10-28 20:53:00
3:34 PM,46.4,39.2,76,29.49,9.0,South,19.6,29.9,0.02,Rain,Light Rain,190,2013-10-28 21:34:00
3:53 PM,45.0,37.0,74,29.44,10.0,South,23.0,28.8,0.02,,Mostly Cloudy,180,2013-10-28 21:53:00
4:53 PM,48.9,35.1,59,29.47,10.0,South,16.1,26.5,N/A,,Mostly Cloudy,180,2013-10-28 22:53:00
5:53 PM,46.9,35.1,63,29.52,10.0,South,16.1,-,N/A,,Partly Cloudy,180,2013-10-28 23:53:00
6:53 PM,45.0,34.0,65,29.57,10.0,South,6.9,-,N/A,,Mostly Cloudy,190,2013-10-29 00:53:00
7:53 PM,43.0,35.1,74,29.61,10.0,NW,11.5,-,N/A,,Mostly Cloudy,310,2013-10-29 01:53:00
8:53 PM,42.1,36.0,79,29.64,10.0,Calm,Calm,-,N/A,,Overcast,0,2013-10-29 02:53:00
9:53 PM,36.0,33.1,89,29.66,10.0,ENE,6.9,-,N/A,,Clear,70,2013-10-29 03:53:00
10:53 PM,37.0,33.1,86,29.70,10.0,ESE,8.1,-,N/A,,Scattered Clouds,110,2013-10-29 04:53:00
11:53 PM,34.0,30.0,85,29.70,10.0,ESE,5.8,-,N/A,,Clear,110,2013-10-29 05:53:00